Location: Mentone
(34.5413°N, 85.5351°W)
Time: 22:02:40
(UTC-06:00)

A-11 Canister half - Visible Passes

Search period start: 26 February 2015 00:00
Search period end: 08 March 2015 00:00
Orbit: 1527 x 1683 km, 47.3° (Epoch: 23 February)

Date Brightness Start Highest point End Pass type
(mag) Time Alt. Az. Time Alt. Az. Time Alt. Az.
26 Feb 10.8 01:22:42 19° NE 01:22:42 19° NE 01:25:04 10° NE visible
26 Feb 9.8 03:21:00 35° NNW 03:22:58 38° N 03:31:28 10° ENE visible
26 Feb 9.3 05:20:14 10° NW 05:29:29 63° NNE 05:38:44 10° ESE visible
27 Feb 11.0 01:02:13 15° NE 01:02:13 15° NE 01:03:30 10° NE visible
27 Feb 9.8 03:00:31 37° N 03:01:20 38° N 03:09:50 10° ENE visible
27 Feb 9.3 04:58:48 10° NW 05:07:55 61° NNE 05:17:08 10° ESE visible
28 Feb 11.2 00:41:45 11° NE 00:41:45 11° NE 00:41:57 10° NE visible
28 Feb 9.8 02:40:03 37° N 02:40:03 37° N 02:48:12 10° ENE visible
28 Feb 9.4 04:38:20 15° NW 04:46:20 59° NNE 04:55:31 10° ESE visible
01 Mar 10.0 02:19:36 35° NNE 02:19:36 35° NNE 02:26:34 10° ENE visible
01 Mar 9.4 04:17:54 19° NW 04:24:45 57° NNE 04:33:53 10° ESE visible
02 Mar 10.2 01:59:12 32° NNE 01:59:12 32° NNE 02:04:56 10° ENE visible
02 Mar 9.4 03:57:30 25° NW 04:03:11 55° NNE 04:12:17 10° ESE visible
02 Mar 11.0 21:13:21 10° SSW 21:13:53 12° SSW 21:13:53 12° SSW visible
03 Mar 10.4 01:38:51 27° NE 01:38:51 27° NE 01:43:19 10° ENE visible
03 Mar 9.4 03:37:08 31° NW 03:41:35 54° NNE 03:50:39 10° E visible
03 Mar 9.1 05:37:41 10° WNW 05:46:48 61° SW 05:55:55 10° SE visible
03 Mar 10.6 18:55:20 10° SE 18:56:07 11° SE 18:56:07 11° SE visible
03 Mar 10.5 20:51:52 10° SSW 20:54:30 20° SSW 20:54:30 20° SSW visible
04 Mar 10.7 01:18:33 22° NE 01:18:33 22° NE 01:21:42 10° ENE visible
04 Mar 9.4 03:16:51 39° NNW 03:20:00 52° NNE 03:29:01 10° E visible
04 Mar 9.0 05:16:07 10° WNW 05:25:18 64° SW 05:34:26 10° SE visible
04 Mar 10.0 20:30:24 10° SSW 20:35:12 31° S 20:35:12 31° S visible
05 Mar 10.9 00:58:18 16° NE 00:58:18 16° NE 01:00:04 10° ENE visible
05 Mar 9.5 02:56:38 46° N 02:58:24 50° NNE 03:07:24 10° E visible
05 Mar 9.0 04:54:57 12° WNW 05:03:47 67° SW 05:12:58 10° SE visible
05 Mar 9.5 20:08:57 10° SSW 20:15:56 42° S 20:15:56 42° S visible
05 Mar 11.1 22:13:34 10° WSW 22:14:20 13° WSW 22:14:20 13° WSW visible
06 Mar 11.2 00:38:10 11° ENE 00:38:10 11° ENE 00:38:29 10° ENE visible
06 Mar 9.5 02:36:30 49° NNE 02:36:49 49° NNE 02:45:46 10° E visible
06 Mar 8.9 04:34:49 18° WNW 04:42:16 71° SW 04:51:29 10° SE visible
06 Mar 9.2 19:47:30 10° SSW 19:56:43 46° SE 19:56:43 46° SE visible
06 Mar 10.5 21:51:55 10° WSW 21:55:07 24° WSW 21:55:07 24° WSW visible
07 Mar 9.7 02:16:27 46° NE 02:16:27 46° NE 02:24:08 10° E visible
07 Mar 8.8 04:14:47 26° WNW 04:20:45 74° SW 04:30:00 10° SE visible
07 Mar 9.3 19:26:05 10° SSW 19:35:14 44° SE 19:37:29 39° ESE visible
07 Mar 9.9 21:30:17 10° WSW 21:35:53 38° W 21:35:53 38° W visible
07 Mar11.623:58:11ENE23:58:11ENE23:34:17Wvisible
